Location: Cronhütte
(48.9135°N, 9.6869°E)
Time: 02:02:02
(UTC+00:00)

Cosmos 1850 Rocket - Pass Details

Date: 23 May 2024
Orbit: 753 x 782 km, 74.0° (Epoch: 13 June)

Event Time Altitude Azimuth Distance (km) Brightness Sun altitude
Exits shadow 01:46:17 19° 216° (SW) 1,795 5.3 -13.0°
Maximum altitude 01:50:07 66° 296° (WNW) 846 4.2 -12.6°
Drops below altitude 10° 01:55:22 10° 19° (NNE) 2,321 7.8 -12.1°
Sets 01:57:46 0° 22° (NNE) 3,247 8.9 -11.9°
